EST,Max TemperatureF,Mean TemperatureF,Min TemperatureF,Max Dew PointF,MeanDew PointF,Min DewpointF,Max Humidity, Mean Humidity, Min Humidity, Max Sea Level PressureIn, Mean Sea Level PressureIn, Min Sea Level PressureIn, Max VisibilityMiles, Mean VisibilityMiles, Min VisibilityMiles, Max Wind SpeedMPH, Mean Wind SpeedMPH, Max Gust SpeedMPH,PrecipitationIn, CloudCover, Events, WindDirDegrees
2012-12-1,51,43,34,32,28,23,70,56,42,30.35,30.29,30.26,10,10,8,13,8,16,0.00,4,,132
2012-12-2,57,48,39,50,45,32,96,76,55,30.24,30.09,30.01,10,4,1,21,10,28,0.35,8,Rain,220
2012-12-3,56,54,51,54,51,48,100,93,86,30.22,30.17,30.11,10,5,0,10,5,16,0.01,8,Fog,229
2012-12-4,64,54,43,54,49,41,93,73,52,30.15,30.03,29.94,10,8,2,25,10,32,0.42,6,Rain,236
2012-12-5,43,34,25,40,28,18,100,79,58,30.35,30.18,30.05,10,10,6,20,10,28,0.01,7,,297
2012-12-6,39,29,19,21,18,16,84,62,40,30.35,30.24,30.04,10,10,10,15,8,20,0.00,1,,100
2012-12-7,41,37,32,40,35,21,100,81,61,30.07,29.97,29.87,10,2,0,14,6,18,0.46,8,Fog-Rain,115
2012-12-8,52,46,40,47,43,34,100,90,80,30.07,29.87,29.81,10,7,0,21,8,28,0.11,8,Fog-Rain,232
2012-12-9,43,38,33,41,33,29,93,82,70,30.17,30.04,29.79,10,9,5,18,11,24,0.07,7,Rain,103
2012-12-10,53,44,34,51,43,32,100,93,85,29.77,29.63,29.51,10,8,2,18,10,25,0.96,8,Rain-Snow,240
2012-12-11,35,32,29,32,28,23,96,80,64,30.19,29.93,29.73,10,8,2,15,7,21,0.05,8,Snow,271
2012-12-12,36,30,24,27,21,17,92,72,52,30.44,30.34,30.18,10,10,10,12,4,16,0.00,2,,249
2012-12-13,40,30,19,22,18,16,84,62,40,30.47,30.39,30.28,10,10,9,10,3,16,0.00,0,,109
2012-12-14,43,34,25,26,23,17,72,61,49,30.27,30.25,30.23,10,10,10,14,5,16,0.00,0,,233
2012-12-15,43,34,25,29,25,23,85,67,49,30.25,30.14,29.98,10,10,8,16,8,23,T,3,,118
2012-12-16,43,41,39,40,35,29,89,77,64,29.94,29.82,29.72,10,8,2,17,10,23,0.06,8,Rain,125
2012-12-17,51,47,42,48,45,41,100,95,89,29.77,29.66,29.51,10,4,0,16,4,25,1.24,8,Fog-Rain,112
2012-12-18,43,37,30,43,35,28,100,93,85,29.81,29.61,29.46,10,5,1,23,10,30,0.09,8,Rain-Snow,259
2012-12-19,36,32,27,34,31,26,100,96,92,30.18,29.96,29.74,6,2,0,12,4,15,0.01,7,Fog-Snow,272
2012-12-20,36,31,25,34,29,25,100,88,75,30.17,29.85,29.41,10,3,0,26,12,35,0.76,5,Fog-Rain-Snow,120
2012-12-21,33,30,27,32,27,24,100,93,85,29.47,29.32,29.22,10,3,0,27,18,38,0.04,8,Fog-Snow,247
2012-12-22,28,27,25,25,21,19,92,84,75,30.02,29.79,29.56,10,4,0,29,18,43,0.01,8,Fog-Snow,282
2012-12-23,33,25,17,21,18,15,92,76,59,30.02,29.94,29.87,10,9,4,20,9,24,0.00,2,,247
2012-12-24,32,24,16,28,24,16,100,82,63,30.03,29.86,29.76,10,4,0,18,6,25,0.07,6,Fog-Snow,117
2012-12-25,31,27,22,30,26,16,100,87,74,30.25,30.08,29.81,10,6,0,10,6,14,0.00,8,Fog,314
2012-12-26,27,25,22,25,21,18,92,83,74,30.26,29.76,29.54,10,4,0,24,13,75,0.33,8,Fog-Snow,82
2012-12-27,26,24,22,23,21,19,100,91,81,30.05,29.77,29.53,10,7,1,22,11,30,0.00,8,Snow,310
2012-12-28,26,23,20,21,20,19,92,84,75,30.14,30.07,29.96,10,10,8,16,7,23,0.00,7,,304
2012-12-29,27,25,22,25,22,20,92,87,81,29.93,29.67,29.54,10,3,0,17,9,25,0.26,8,Fog-Snow,32
2012-12-30,26,24,21,23,20,16,88,85,81,30.30,30.07,29.80,10,3,0,24,14,32,T,8,Fog-Snow,280
2012-12-31,30,25,19,27,21,16,92,78,63,30.27,30.04,29.90,10,6,1,24,15,32,T,6,Snow,244